Location: Kennington
(51.1500°N, 0.8833°E)
Time: 11:23:21
(UTC+00:00)

Cosmos 1980 Rocket - Pass Details

Date: 21 September 2020
Orbit: 831 x 848 km, 71.0° (Epoch: 30 October)

Event Time Altitude Azimuth Distance (km) Brightness Sun altitude
Exits shadow 02:05:54 23° 121° (ESE) 1,721 3.8 -30.8°
Maximum altitude 02:07:01 25° 103° (ESE) 1,659 3.9 -30.7°
Drops below altitude 10° 02:11:30 10° 50° (NE) 2,470 5.5 -30.2°
Sets 02:14:20 0° 38° (NE) 3,406 6.5 -29.9°
